Location: Bacea
(45.9500°N, 22.6667°E)
Time: 23:24:13
(UTC+00:00)

Okean 1 Rocket - Pass Details

Date: 16 October 2021
Orbit: 607 x 633 km, 82.5° (Epoch: 26 November)

Event Time Altitude Azimuth Distance (km) Brightness Sun altitude
Rises 16:55:19 0° 201° (SSW) 2,854 6.7 -13.6°
Reaches altitude 10° 16:57:35 10° 206° (SSW) 1,954 5.9 -14.0°
Maximum altitude 17:01:47 50° 282° (WNW) 780 4.0 -14.7°
Drops below altitude 10° 17:06:02 10° 359° (N) 1,974 5.7 -15.5°
Sets 17:08:19 0° 5° (N) 2,885 6.5 -15.9°
